| time (UTC) | temp C | wind direction | speed KPH | gust KPH | rain 1hr cm | rain 24hr cm | rain mn cm | humidity % | barometer mb |
| 20260505214142 | 21 | 174 | 0.0 | 1.6 | 0.00 | 0.00 | 0.00 | 50 | 1001.1 |
| 20260505213640 | 21 | 174 | 0.0 | 1.6 | 0.00 | 0.00 | 0.00 | 48 | 1001.3 |
| 20260505213136 | 22 | 174 | 0.0 | 0.0 | 0.00 | 0.00 | 0.00 | 48 | 1000.9 |
| 20260505212632 | 22 | 174 | 0.0 | 0.0 | 0.00 | 0.00 | 0.00 | 46 | 1000.8 |
| 20260505212130 | 22 | 174 | 0.0 | 0.0 | 0.00 | 0.00 | 0.00 | 46 | 1000.9 |
| 20260505211627 | 22 | 174 | 3.2 | 3.2 | 0.00 | 0.00 | 0.00 | 46 | 1001.0 |
| 20260505211124 | 22 | 174 | 0.0 | 1.6 | 0.00 | 0.00 | 0.00 | 45 | 1000.7 |
| 20260505210621 | 22 | 174 | 0.0 | 0.0 | 0.00 | 0.00 | 0.00 | 45 | 1000.7 |
| 20260505210117 | 23 | 174 | 3.2 | 4.8 | 0.00 | 0.00 | 0.00 | 44 | 1000.6 |
| 20260505205615 | 23 | 174 | 1.6 | 3.2 | 0.00 | 0.00 | 0.00 | 46 | 1000.5 |
| 20260505205113 | 23 | 174 | 1.6 | 4.8 | 0.00 | 0.00 | 0.00 | 45 | 1000.8 |
| 20260505204610 | 23 | 174 | 0.0 | 1.6 | 0.00 | 0.00 | 0.00 | 45 | 1000.6 |
| 20260505204107 | 23 | 174 | 0.0 | 3.2 | 0.00 | 0.00 | 0.00 | 43 | 1000.8 |
| 20260505203604 | 22 | 174 | 0.0 | 1.6 | 0.00 | 0.00 | 0.00 | 44 | 1000.9 |
| 20260505203101 | 22 | 174 | 0.0 | 0.0 | 0.00 | 0.00 | 0.00 | 45 | 1000.7 |
| 20260505202556 | 23 | 174 | 1.6 | 3.2 | 0.00 | 0.00 | 0.00 | 42 | 1000.7 |
| 20260505202053 | 23 | 174 | 0.0 | 0.0 | 0.00 | 0.00 | 0.00 | 43 | 1000.7 |
| 20260505201550 | 23 | 174 | 0.0 | 1.6 | 0.00 | 0.00 | 0.00 | 43 | 1000.9 |
| 20260505201048 | 22 | 174 | 1.6 | 3.2 | 0.00 | 0.00 | 0.00 | 43 | 1000.8 |
| 20260505200545 | 21 | 174 | 0.0 | 0.0 | 0.00 | 0.00 | 0.00 | 46 | 1000.9 |
| 20260505200042 | 21 | 174 | 0.0 | 1.6 | 0.00 | 0.00 | 0.00 | 44 | 1001.0 |
| 20260505195538 | 24 | 174 | 1.6 | 4.8 | 0.00 | 0.00 | 0.00 | 41 | 1000.8 |
| 20260505195036 | 23 | 174 | 3.2 | 3.2 | 0.00 | 0.00 | 0.00 | 41 | 1000.9 |
| 20260505194533 | 23 | 174 | 0.0 | 0.0 | 0.00 | 0.00 | 0.00 | 42 | 1001.4 |
| 20260505194028 | 25 | 174 | 3.2 | 3.2 | 0.00 | 0.00 | 0.00 | 40 | 1001.3 |
| 20260505193525 | 23 | 174 | 1.6 | 3.2 | 0.00 | 0.00 | 0.00 | 41 | 1001.1 |
| 20260505193023 | 23 | 174 | 0.0 | 1.6 | 0.00 | 0.00 | 0.00 | 43 | 1001.4 |
| 20260505192521 | 23 | 174 | 1.6 | 4.8 | 0.00 | 0.00 | 0.00 | 45 | 1001.4 |
| 20260505192018 | 23 | 174 | 0.0 | 3.2 | 0.00 | 0.00 | 0.00 | 41 | 1001.5 |
| 20260505191516 | 25 | 174 | 4.8 | 9.7 | 0.00 | 0.00 | 0.00 | 40 | 1001.6 |
| 20260505191014 | 26 | 174 | 0.0 | 3.2 | 0.00 | 0.00 | 0.00 | 37 | 1001.5 |
| 20260505190508 | 27 | 174 | 0.0 | 4.8 | 0.00 | 0.00 | 0.00 | 30 | 1001.4 |
| 20260505190005 | 28 | 174 | 1.6 | 4.8 | 0.00 | 0.00 | 0.00 | 30 | 1001.2 |
| 20260505185501 | 26 | 174 | 1.6 | 9.7 | 0.00 | 0.00 | 0.00 | 32 | 1001.7 |
| 20260505184952 | 26 | 174 | 1.6 | 3.2 | 0.00 | 0.00 | 0.00 | 33 | 1002.0 |
| 20260505184449 | 27 | 174 | 0.0 | 6.4 | 0.00 | 0.00 | 0.00 | 32 | 1001.9 |
| 20260505183945 | 26 | 174 | 0.0 | 4.8 | 0.00 | 0.00 | 0.00 | 33 | 1002.0 |
| 20260505183443 | 26 | 174 | 3.2 | 9.7 | 0.00 | 0.00 | 0.00 | 32 | 1002.1 |
| 20260505182939 | 26 | 174 | 1.6 | 9.7 | 0.00 | 0.00 | 0.00 | 33 | 1002.1 |
| 20260505182436 | 26 | 174 | 1.6 | 3.2 | 0.00 | 0.00 | 0.00 | 34 | 1002.2 |
| 20260505181932 | 26 | 174 | 0.0 | 3.2 | 0.00 | 0.00 | 0.00 | 33 | 1002.3 |
| 20260505181430 | 27 | 174 | 3.2 | 4.8 | 0.00 | 0.00 | 0.00 | 32 | 1002.3 |
| 20260505180927 | 27 | 174 | 3.2 | 3.2 | 0.00 | 0.00 | 0.00 | 32 | 1002.3 |
| 20260505180423 | 26 | 174 | 0.0 | 3.2 | 0.00 | 0.00 | 0.00 | 31 | 1002.3 |
| 20260505175920 | 27 | 174 | 1.6 | 4.8 | 0.00 | 0.00 | 0.00 | 33 | 1002.3 |
| 20260505175416 | 27 | 174 | 4.8 | 4.8 | 0.00 | 0.00 | 0.00 | 31 | 1002.5 |
| 20260505174912 | 27 | 174 | 1.6 | 14.5 | 0.00 | 0.00 | 0.00 | 32 | 1002.4 |
| 20260505174410 | 27 | 174 | 1.6 | 6.4 | 0.00 | 0.00 | 0.00 | 31 | 1002.6 |
| 20260505173906 | 26 | 174 | 1.6 | 6.4 | 0.00 | 0.00 | 0.00 | 32 | 1002.8 |
| 20260505173403 | 26 | 174 | 3.2 | 11.3 | 0.00 | 0.00 | 0.00 | 32 | 1002.7 |
| 20260505172900 | 27 | 174 | 1.6 | 9.7 | 0.00 | 0.00 | 0.00 | 31 | 1002.5 |
| 20260505172357 | 26 | 174 | 0.0 | 1.6 | 0.00 | 0.00 | 0.00 | 33 | 1003.0 |
| 20260505171857 | 26 | 174 | 3.2 | 4.8 | 0.00 | 0.00 | 0.00 | 33 | 1002.9 |
| 20260505171354 | 26 | 174 | 0.0 | 3.2 | 0.00 | 0.00 | 0.00 | 33 | 1003.0 |
| 20260505170850 | 26 | 174 | 1.6 | 3.2 | 0.00 | 0.00 | 0.00 | 35 | 1002.9 |
| 20260505170348 | 26 | 174 | 0.0 | 4.8 | 0.00 | 0.00 | 0.00 | 36 | 1003.1 |
| 20260505165843 | 25 | 174 | 0.0 | 3.2 | 0.00 | 0.00 | 0.00 | 34 | 1003.4 |
| 20260505165339 | 26 | 174 | 3.2 | 6.4 | 0.00 | 0.00 | 0.00 | 34 | 1003.6 |
| 20260505164835 | 26 | 174 | 0.0 | 4.8 | 0.00 | 0.00 | 0.00 | 33 | 1003.5 |
| 20260505164331 | 26 | 174 | 1.6 | 6.4 | 0.00 | 0.00 | 0.00 | 35 | 1003.6 |
| 20260505163830 | 26 | 174 | 1.6 | 1.6 | 0.00 | 0.00 | 0.00 | 35 | 1003.7 |
| 20260505163328 | 25 | 174 | 0.0 | 3.2 | 0.00 | 0.00 | 0.00 | 36 | 1004.0 |
| 20260505162826 | 26 | 174 | 3.2 | 9.7 | 0.00 | 0.00 | 0.00 | 35 | 1004.2 |
| 20260505162322 | 25 | 174 | 0.0 | 3.2 | 0.00 | 0.00 | 0.00 | 37 | 1004.4 |
| 20260505161819 | 26 | 174 | 3.2 | 6.4 | 0.00 | 0.00 | 0.00 | 35 | 1004.5 |
| 20260505161317 | 26 | 174 | 1.6 | 3.2 | 0.00 | 0.00 | 0.00 | 36 | 1004.5 |
| 20260505160814 | 25 | 174 | 1.6 | 9.7 | 0.00 | 0.00 | 0.00 | 36 | 1004.4 |
| 20260505160312 | 25 | 174 | 1.6 | 6.4 | 0.00 | 0.00 | 0.00 | 36 | 1004.6 |
| 20260505153250 | 23 | 174 | 0.0 | 4.8 | 0.00 | 0.00 | 0.00 | 38 | 1004.9 |
| 20260505152747 | 22 | 174 | 0.0 | 6.4 | 0.00 | 0.00 | 0.00 | 40 | 1004.7 |
| 20260505152243 | 23 | 174 | 1.6 | 6.4 | 0.00 | 0.00 | 0.00 | 38 | 1005.2 |
| 20260505151738 | 22 | 174 | 0.0 | 1.6 | 0.00 | 0.00 | 0.00 | 39 | 1005.3 |
| 20260505151236 | 22 | 174 | 3.2 | 4.8 | 0.00 | 0.00 | 0.00 | 38 | 1005.4 |
| 20260505150732 | 22 | 174 | 1.6 | 3.2 | 0.00 | 0.00 | 0.00 | 39 | 1005.3 |
| 20260505150229 | 22 | 174 | 0.0 | 6.4 | 0.00 | 0.00 | 0.00 | 40 | 1005.5 |
| 20260505140154 | 12 | 284 | 1.6 | 3.2 | 0.00 | 0.00 | 0.00 | 69 | 1005.3 |
| 20260505130118 | 10 | 284 | 0.0 | 0.0 | 0.00 | 0.00 | 0.00 | 71 | 1006.1 |
| 20260505124607 | 10 | 284 | 0.0 | 0.0 | 0.00 | 0.00 | 0.00 | 75 | 1006.4 |
| 20260505124103 | 10 | 284 | 0.0 | 0.0 | 0.00 | 0.00 | 0.00 | 75 | 1006.3 |
| 20260505123600 | 10 | 284 | 0.0 | 3.2 | 0.00 | 0.00 | 0.00 | 74 | 1006.1 |
| 20260505123057 | 10 | 284 | 0.0 | 0.0 | 0.00 | 0.00 | 0.00 | 75 | 1006.1 |
| 20260505122553 | 10 | 284 | 0.0 | 0.0 | 0.00 | 0.00 | 0.00 | 73 | 1005.8 |
| 20260505122051 | 9 | 284 | 0.0 | 0.0 | 0.00 | 0.00 | 0.00 | 75 | 1005.6 |
| 20260505121547 | 8 | 284 | 0.0 | 1.6 | 0.00 | 0.00 | 0.00 | 76 | 1005.9 |
| 20260505121044 | 8 | 284 | 0.0 | 0.0 | 0.00 | 0.00 | 0.00 | 77 | 1005.7 |
| 20260505120540 | 8 | 284 | 0.0 | 3.2 | 0.00 | 0.00 | 0.00 | 78 | 1006.1 |
| 20260505120036 | 8 | 284 | 0.0 | 0.0 | 0.00 | 0.00 | 0.00 | 79 | 1006.0 |
| 20260505115531 | 8 | 284 | 0.0 | 0.0 | 0.00 | 0.00 | 0.00 | 79 | 1006.1 |
| 20260505115029 | 8 | 284 | 0.0 | 0.0 | 0.00 | 0.00 | 0.00 | 79 | 1006.1 |
| 20260505114525 | 8 | 284 | 0.0 | 0.0 | 0.00 | 0.00 | 0.00 | 79 | 1006.0 |
| 20260505114021 | 8 | 284 | 0.0 | 0.0 | 0.00 | 0.00 | 0.00 | 81 | 1006.1 |
| 20260505113518 | 8 | 284 | 0.0 | 0.0 | 0.00 | 0.00 | 0.00 | 82 | 1006.2 |
| 20260505113014 | 8 | 284 | 0.0 | 0.0 | 0.00 | 0.00 | 0.00 | 82 | 1006.1 |
| 20260505112510 | 7 | 284 | 0.0 | 0.0 | 0.00 | 0.00 | 0.00 | 83 | 1006.1 |
| 20260505112008 | 7 | 284 | 0.0 | 0.0 | 0.00 | 0.00 | 0.00 | 84 | 1006.2 |
| 20260505111502 | 7 | 284 | 0.0 | 0.0 | 0.00 | 0.00 | 0.00 | 84 | 1006.0 |
| 20260505110959 | 7 | 284 | 0.0 | 0.0 | 0.00 | 0.00 | 0.00 | 85 | 1006.2 |
| 20260505110455 | 7 | 284 | 0.0 | 0.0 | 0.00 | 0.00 | 0.00 | 86 | 1006.3 |
| 20260505101927 | 6 | 284 | 0.0 | 0.0 | 0.00 | 0.00 | 0.00 | 86 | 1006.1 |
| 20260505101421 | 6 | 284 | 0.0 | 0.0 | 0.00 | 0.00 | 0.00 | 86 | 1006.1 |
| 20260505100917 | 6 | 284 | 0.0 | 0.0 | 0.00 | 0.00 | 0.00 | 86 | 1006.3 |
| 20260505100414 | 6 | 284 | 0.0 | 0.0 | 0.00 | 0.00 | 0.00 | 86 | 1006.2 |
| 20260505095909 | 6 | 284 | 0.0 | 0.0 | 0.00 | 0.00 | 0.00 | 86 | 1006.1 |
| 20260505095407 | 6 | 284 | 0.0 | 0.0 | 0.00 | 0.00 | 0.00 | 86 | 1006.2 |
| 20260505094903 | 6 | 284 | 0.0 | 0.0 | 0.00 | 0.00 | 0.00 | 86 | 1006.1 |
| 20260505094400 | 6 | 284 | 0.0 | 0.0 | 0.00 | 0.00 | 0.00 | 86 | 1006.1 |
| 20260505093855 | 6 | 284 | 0.0 | 0.0 | 0.00 | 0.00 | 0.00 | 86 | 1006.2 |
| 20260505093353 | 6 | 284 | 0.0 | 0.0 | 0.00 | 0.00 | 0.00 | 85 | 1006.4 |
| 20260505092850 | 6 | 284 | 0.0 | 0.0 | 0.00 | 0.00 | 0.00 | 85 | 1006.1 |
| 20260505092348 | 6 | 284 | 0.0 | 0.0 | 0.00 | 0.00 | 0.00 | 85 | 1006.0 |
| 20260505091845 | 6 | 284 | 0.0 | 0.0 | 0.00 | 0.00 | 0.00 | 85 | 1006.1 |
| 20260505091343 | 6 | 284 | 0.0 | 0.0 | 0.00 | 0.00 | 0.00 | 85 | 1006.1 |
| 20260505090841 | 6 | 284 | 0.0 | 0.0 | 0.00 | 0.00 | 0.00 | 84 | 1006.2 |
| 20260505090339 | 6 | 284 | 0.0 | 0.0 | 0.00 | 0.00 | 0.00 | 84 | 1006.1 |
| 20260505085836 | 6 | 284 | 0.0 | 0.0 | 0.00 | 0.00 | 0.00 | 84 | 1006.1 |
| 20260505085334 | 6 | 284 | 0.0 | 0.0 | 0.00 | 0.00 | 0.00 | 83 | 1006.2 |
| 20260505084831 | 7 | 284 | 0.0 | 0.0 | 0.00 | 0.00 | 0.00 | 83 | 1006.3 |
| 20260505084330 | 7 | 284 | 0.0 | 0.0 | 0.00 | 0.00 | 0.00 | 83 | 1006.4 |
| 20260505083826 | 7 | 284 | 0.0 | 0.0 | 0.00 | 0.00 | 0.00 | 83 | 1006.3 |
| 20260505083324 | 7 | 284 | 0.0 | 0.0 | 0.00 | 0.00 | 0.00 | 83 | 1006.4 |
| 20260505082820 | 7 | 284 | 0.0 | 0.0 | 0.00 | 0.00 | 0.00 | 83 | 1006.2 |
| 20260505082317 | 7 | 284 | 0.0 | 0.0 | 0.00 | 0.00 | 0.00 | 83 | 1006.4 |
| 20260505081813 | 7 | 284 | 0.0 | 0.0 | 0.00 | 0.00 | 0.00 | 83 | 1006.7 |
| 20260505081310 | 7 | 284 | 0.0 | 0.0 | 0.00 | 0.00 | 0.00 | 83 | 1006.5 |
| 20260505080807 | 7 | 284 | 0.0 | 0.0 | 0.00 | 0.00 | 0.00 | 81 | 1006.5 |
| 20260505080303 | 7 | 284 | 0.0 | 0.0 | 0.00 | 0.00 | 0.00 | 80 | 1006.7 |
| 20260505075758 | 7 | 284 | 0.0 | 0.0 | 0.00 | 0.00 | 0.00 | 79 | 1006.6 |
| 20260505075256 | 7 | 284 | 0.0 | 0.0 | 0.00 | 0.00 | 0.00 | 79 | 1006.5 |
| 20260505074753 | 7 | 284 | 0.0 | 0.0 | 0.00 | 0.00 | 0.00 | 79 | 1006.4 |
| 20260505074250 | 7 | 284 | 0.0 | 0.0 | 0.00 | 0.00 | 0.00 | 79 | 1006.7 |
| 20260505073747 | 8 | 284 | 0.0 | 0.0 | 0.00 | 0.00 | 0.00 | 79 | 1006.4 |
| 20260505073245 | 8 | 284 | 0.0 | 0.0 | 0.00 | 0.00 | 0.00 | 78 | 1006.3 |
| 20260505072742 | 8 | 284 | 0.0 | 0.0 | 0.00 | 0.00 | 0.00 | 78 | 1006.4 |
| 20260505072238 | 8 | 284 | 0.0 | 0.0 | 0.00 | 0.00 | 0.00 | 77 | 1006.5 |
| 20260505071733 | 8 | 284 | 0.0 | 0.0 | 0.00 | 0.00 | 0.00 | 76 | 1006.4 |
| 20260505071231 | 8 | 284 | 0.0 | 0.0 | 0.00 | 0.00 | 0.00 | 75 | 1006.4 |
| 20260505070728 | 8 | 284 | 0.0 | 0.0 | 0.00 | 0.00 | 0.00 | 75 | 1006.3 |
| 20260505070224 | 8 | 284 | 0.0 | 0.0 | 0.00 | 0.00 | 0.00 | 75 | 1006.2 |
| 20260505065720 | 8 | 284 | 0.0 | 0.0 | 0.00 | 0.00 | 0.00 | 75 | 1006.5 |
| 20260505065217 | 8 | 284 | 0.0 | 0.0 | 0.00 | 0.00 | 0.00 | 75 | 1006.3 |
| 20260505064714 | 8 | 284 | 0.0 | 0.0 | 0.00 | 0.00 | 0.00 | 75 | 1006.4 |
| 20260505064212 | 8 | 284 | 0.0 | 0.0 | 0.00 | 0.00 | 0.00 | 75 | 1006.6 |
| 20260505063709 | 8 | 284 | 0.0 | 0.0 | 0.00 | 0.00 | 0.00 | 76 | 1006.4 |
| 20260505063205 | 8 | 284 | 0.0 | 0.0 | 0.00 | 0.00 | 0.00 | 77 | 1006.5 |
| 20260505062701 | 8 | 284 | 0.0 | 0.0 | 0.00 | 0.00 | 0.00 | 77 | 1006.4 |
| 20260505062200 | 8 | 284 | 0.0 | 0.0 | 0.00 | 0.00 | 0.00 | 77 | 1006.4 |
| 20260505061656 | 8 | 284 | 0.0 | 0.0 | 0.00 | 0.00 | 0.00 | 77 | 1006.4 |
| 20260505061154 | 8 | 284 | 0.0 | 0.0 | 0.00 | 0.00 | 0.00 | 76 | 1006.4 |
| 20260505060651 | 8 | 284 | 0.0 | 0.0 | 0.00 | 0.00 | 0.00 | 76 | 1006.3 |
| 20260505060148 | 8 | 284 | 0.0 | 0.0 | 0.00 | 0.00 | 0.00 | 75 | 1006.6 |
| 20260505055643 | 8 | 284 | 0.0 | 0.0 | 0.00 | 0.00 | 0.00 | 75 | 1006.5 |
| 20260505055140 | 9 | 284 | 0.0 | 0.0 | 0.00 | 0.00 | 0.00 | 74 | 1006.4 |
| 20260505054638 | 9 | 284 | 0.0 | 0.0 | 0.00 | 0.00 | 0.00 | 74 | 1006.4 |
| 20260505054136 | 9 | 284 | 0.0 | 0.0 | 0.00 | 0.00 | 0.00 | 74 | 1006.4 |
| 20260505053633 | 10 | 284 | 0.0 | 0.0 | 0.00 | 0.00 | 0.00 | 73 | 1006.5 |
| 20260505053129 | 10 | 284 | 0.0 | 0.0 | 0.00 | 0.00 | 0.00 | 71 | 1006.4 |
| 20260505052626 | 10 | 284 | 0.0 | 0.0 | 0.00 | 0.00 | 0.00 | 70 | 1006.5 |
| 20260505052124 | 10 | 284 | 0.0 | 0.0 | 0.00 | 0.00 | 0.00 | 68 | 1006.3 |
| 20260505051621 | 10 | 284 | 0.0 | 0.0 | 0.00 | 0.00 | 0.00 | 67 | 1006.3 |
| 20260505051119 | 11 | 284 | 0.0 | 0.0 | 0.00 | 0.00 | 0.00 | 66 | 1006.4 |
| 20260505050616 | 11 | 284 | 0.0 | 1.6 | 0.00 | 0.00 | 0.00 | 65 | 1006.2 |
| 20260505050114 | 11 | 284 | 0.0 | 1.6 | 0.00 | 0.00 | 0.00 | 65 | 1006.4 |
| 20260505041544 | 12 | 284 | 0.0 | 0.0 | 0.00 | 0.00 | 0.00 | 60 | 1005.9 |
| 20260505041041 | 12 | 284 | 0.0 | 0.0 | 0.00 | 0.00 | 0.00 | 58 | 1006.0 |
| 20260505040538 | 12 | 284 | 0.0 | 0.0 | 0.00 | 0.00 | 0.00 | 58 | 1006.0 |
| 20260505040036 | 12 | 284 | 0.0 | 0.0 | 0.00 | 0.00 | 0.00 | 57 | 1005.8 |
| 20260505035531 | 11 | 284 | 0.0 | 0.0 | 0.00 | 0.00 | 0.00 | 61 | 1005.6 |
| 20260505035028 | 11 | 284 | 0.0 | 1.6 | 0.00 | 0.00 | 0.00 | 64 | 1005.5 |
| 20260505034525 | 11 | 284 | 0.0 | 0.0 | 0.00 | 0.00 | 0.00 | 66 | 1005.5 |
| 20260505034022 | 11 | 284 | 0.0 | 0.0 | 0.00 | 0.00 | 0.00 | 66 | 1005.6 |
| 20260505033519 | 11 | 284 | 0.0 | 0.0 | 0.00 | 0.00 | 0.00 | 65 | 1005.5 |
| 20260505033017 | 11 | 284 | 0.0 | 0.0 | 0.00 | 0.00 | 0.00 | 65 | 1005.6 |
| 20260505032514 | 11 | 284 | 0.0 | 0.0 | 0.00 | 0.00 | 0.00 | 67 | 1005.5 |
| 20260505032010 | 11 | 284 | 0.0 | 0.0 | 0.00 | 0.00 | 0.00 | 64 | 1005.7 |
| 20260505031508 | 11 | 284 | 0.0 | 0.0 | 0.00 | 0.00 | 0.00 | 65 | 1005.4 |
| 20260505031004 | 10 | 284 | 0.0 | 0.0 | 0.00 | 0.00 | 0.00 | 66 | 1005.3 |
| 20260505030501 | 10 | 284 | 0.0 | 0.0 | 0.00 | 0.00 | 0.00 | 67 | 1005.4 |
| 20260505025955 | 11 | 284 | 0.0 | 0.0 | 0.00 | 0.00 | 0.00 | 65 | 1005.2 |
| 20260505025453 | 11 | 284 | 0.0 | 0.0 | 0.00 | 0.00 | 0.00 | 63 | 1005.4 |
| 20260505024952 | 11 | 284 | 0.0 | 0.0 | 0.00 | 0.00 | 0.00 | 65 | 1005.2 |
| 20260505024449 | 11 | 284 | 0.0 | 0.0 | 0.00 | 0.00 | 0.00 | 65 | 1005.3 |
| 20260505023946 | 10 | 284 | 0.0 | 0.0 | 0.00 | 0.00 | 0.00 | 65 | 1005.5 |
| 20260505023443 | 10 | 284 | 0.0 | 0.0 | 0.00 | 0.00 | 0.00 | 66 | 1005.4 |
| 20260505022940 | 10 | 284 | 0.0 | 0.0 | 0.00 | 0.00 | 0.00 | 67 | 1005.3 |
| 20260505022438 | 11 | 284 | 0.0 | 0.0 | 0.00 | 0.00 | 0.00 | 67 | 1005.5 |
| 20260505021935 | 11 | 284 | 0.0 | 0.0 | 0.00 | 0.00 | 0.00 | 65 | 1005.6 |
| 20260505021431 | 10 | 284 | 0.0 | 0.0 | 0.00 | 0.00 | 0.00 | 65 | 1005.2 |
| 20260505020927 | 10 | 284 | 0.0 | 0.0 | 0.00 | 0.00 | 0.00 | 67 | 1005.3 |
| 20260505020422 | 10 | 284 | 0.0 | 0.0 | 0.00 | 0.00 | 0.00 | 67 | 1005.4 |
| 20260505015919 | 10 | 284 | 0.0 | 0.0 | 0.00 | 0.00 | 0.00 | 68 | 1005.2 |
| 20260505015417 | 10 | 284 | 0.0 | 0.0 | 0.00 | 0.00 | 0.00 | 70 | 1005.3 |
| 20260505014914 | 11 | 284 | 0.0 | 3.2 | 0.00 | 0.00 | 0.00 | 67 | 1005.3 |
| 20260505014411 | 11 | 284 | 0.0 | 0.0 | 0.00 | 0.00 | 0.00 | 64 | 1005.4 |
| 20260505013908 | 11 | 284 | 0.0 | 0.0 | 0.00 | 0.00 | 0.00 | 63 | 1005.1 |
| 20260505013404 | 11 | 284 | 0.0 | 0.0 | 0.00 | 0.00 | 0.00 | 62 | 1005.0 |
| 20260505012903 | 11 | 284 | 0.0 | 0.0 | 0.00 | 0.00 | 0.00 | 63 | 1005.0 |
| 20260505012400 | 11 | 284 | 0.0 | 0.0 | 0.00 | 0.00 | 0.00 | 63 | 1005.0 |
| 20260505011856 | 11 | 284 | 0.0 | 0.0 | 0.00 | 0.00 | 0.00 | 62 | 1005.1 |
| 20260505011353 | 11 | 284 | 0.0 | 0.0 | 0.00 | 0.00 | 0.00 | 63 | 1005.0 |
| 20260505010849 | 11 | 284 | 0.0 | 0.0 | 0.00 | 0.00 | 0.00 | 62 | 1004.9 |
| 20260505010345 | 11 | 284 | 0.0 | 0.0 | 0.00 | 0.00 | 0.00 | 63 | 1004.8 |
| 20260505005842 | 11 | 284 | 0.0 | 0.0 | 0.00 | 0.00 | 0.00 | 62 | 1004.8 |
| 20260505005338 | 11 | 284 | 0.0 | 0.0 | 0.00 | 0.00 | 0.00 | 62 | 1004.6 |
| 20260505004836 | 11 | 284 | 0.0 | 0.0 | 0.00 | 0.00 | 0.00 | 62 | 1004.5 |
| 20260505004332 | 11 | 284 | 0.0 | 0.0 | 0.00 | 0.00 | 0.00 | 61 | 1004.8 |
| 20260505003830 | 11 | 284 | 0.0 | 0.0 | 0.00 | 0.00 | 0.00 | 61 | 1004.7 |
| 20260505003327 | 11 | 284 | 0.0 | 0.0 | 0.00 | 0.00 | 0.00 | 61 | 1004.5 |
| 20260505002822 | 11 | 284 | 0.0 | 0.0 | 0.00 | 0.00 | 0.00 | 61 | 1004.0 |
| 20260505002320 | 12 | 284 | 0.0 | 0.0 | 0.00 | 0.00 | 0.00 | 60 | 1004.2 |
| 20260505001818 | 12 | 284 | 0.0 | 0.0 | 0.00 | 0.00 | 0.00 | 59 | 1004.2 |
| 20260505001315 | 12 | 284 | 0.0 | 0.0 | 0.00 | 0.00 | 0.00 | 59 | 1004.2 |
| 20260505000812 | 12 | 284 | 0.0 | 0.0 | 0.00 | 0.00 | 0.00 | 59 | 1004.0 |
| 20260505000310 | 12 | 284 | 0.0 | 0.0 | 0.00 | 0.00 | 0.00 | 57 | 1004.0 |
| 20260504235806 | 12 | 284 | 0.0 | 0.0 | 0.00 | 0.00 | 0.00 | 57 | 1004.1 |
| 20260504235304 | 12 | 284 | 0.0 | 0.0 | 0.00 | 0.00 | 0.00 | 55 | 1003.7 |
| 20260504234800 | 13 | 284 | 0.0 | 0.0 | 0.00 | 0.00 | 0.00 | 55 | 1003.8 |
| 20260504234258 | 13 | 284 | 0.0 | 0.0 | 0.00 | 0.00 | 0.00 | 55 | 1003.8 |
| 20260504233753 | 13 | 284 | 0.0 | 0.0 | 0.00 | 0.00 | 0.00 | 53 | 1003.6 |
| 20260504233249 | 14 | 284 | 0.0 | 0.0 | 0.00 | 0.00 | 0.00 | 53 | 1003.7 |
| 20260504232746 | 15 | 284 | 0.0 | 0.0 | 0.00 | 0.00 | 0.00 | 52 | 1003.6 |
| 20260504232243 | 15 | 284 | 0.0 | 0.0 | 0.00 | 0.00 | 0.00 | 50 | 1003.5 |
| 20260504231740 | 15 | 284 | 0.0 | 0.0 | 0.00 | 0.00 | 0.00 | 48 | 1003.5 |
| 20260504231237 | 16 | 284 | 0.0 | 0.0 | 0.00 | 0.00 | 0.00 | 47 | 1003.6 |
| 20260504230732 | 16 | 284 | 0.0 | 0.0 | 0.00 | 0.00 | 0.00 | 44 | 1003.2 |
| 20260504230231 | 17 | 284 | 0.0 | 0.0 | 0.00 | 0.00 | 0.00 | 41 | 1003.1 |
| 20260504225730 | 17 | 284 | 0.0 | 1.6 | 0.00 | 0.00 | 0.00 | 41 | 1003.2 |
| 20260504225226 | 17 | 284 | 0.0 | 0.0 | 0.00 | 0.00 | 0.00 | 40 | 1003.2 |
| 20260504224723 | 18 | 284 | 0.0 | 0.0 | 0.00 | 0.00 | 0.00 | 40 | 1003.0 |
| 20260504224220 | 18 | 284 | 1.6 | 1.6 | 0.00 | 0.00 | 0.00 | 33 | 1002.9 |
| 20260504223716 | 18 | 284 | 0.0 | 3.2 | 0.00 | 0.00 | 0.00 | 35 | 1003.0 |
| 20260504223212 | 18 | 284 | 1.6 | 4.8 | 0.00 | 0.00 | 0.00 | 35 | 1003.2 |
| 20260504222709 | 18 | 284 | 0.0 | 1.6 | 0.00 | 0.00 | 0.00 | 37 | 1003.1 |
| 20260504222206 | 18 | 284 | 0.0 | 0.0 | 0.00 | 0.00 | 0.00 | 37 | 1003.1 |
| 20260504221703 | 18 | 284 | 0.0 | 0.0 | 0.00 | 0.00 | 0.00 | 35 | 1002.9 |
| 20260504221200 | 18 | 284 | 0.0 | 0.0 | 0.00 | 0.00 | 0.00 | 37 | 1003.0 |
| 20260504220656 | 19 | 284 | 0.0 | 0.0 | 0.00 | 0.00 | 0.00 | 36 | 1003.0 |
| 20260504220154 | 19 | 284 | 0.0 | 0.0 | 0.00 | 0.00 | 0.00 | 35 | 1003.1 |
| 20260504215651 | 19 | 284 | 0.0 | 3.2 | 0.00 | 0.00 | 0.00 | 33 | 1003.0 |
| 20260504215148 | 19 | 284 | 0.0 | 1.6 | 0.00 | 0.00 | 0.00 | 36 | 1003.0 |
| 20260504214643 | 19 | 284 | 0.0 | 0.0 | 0.00 | 0.00 | 0.00 | 36 | 1002.9 |